Theta_e
306 304 303 302 302 301 301 300 296 292 292 295 295 298 298 297 298 294 295 298 297 296 295 294 294 294 294 294 294 295 296 296 297 298 299 300 303 305
305 303 302 300 300 301 300 299 298 296 293 294 294 294 295 296 296 293 294 295 297 296 294 294 293 293 292 292 293 294 295 294 295 295 296 298 302 304
302 302 301 301 299 298 298 297 296 295 292 293 293 293 291 290 291 291 292 291 292 295 294 294 292 291 291 292 292 292 292 293 293 294 294 296 299 304
302 301 300 302 298 297 296 295 294 296 293 290 291 290 289 289 289 288 290 291 290 295 294 293 291 290 290 290 291 291 290 291 291 291 292 293 295 300
302 300 299 298 295 295 296 295 294 295 292 289 288 289 287 287 286 287 287 287 290 294 293 292 290 289 290 290 290 290 290 289 289 290 289 290 291 295
301 299 299 298 296 295 294 293 293 290 289 289 287 285 284 285 285 283 282 285 284 290 290 291 289 288 289 289 289 289 289 289 289 288 289 288 289 293
295 294 292 293 292 293 294 292 290 288 287 285 282 279 279 278 280 284 283 284 283 285 282 283 283 283 284 287 288 289 288 289 289 288 288 288 288 289
290 289 289 290 289 289 289 288 289 287 284 281 278 279 279 281 283 282 282 282 281 283 287 278 283 282 284 285 288 287 287 288 289 288 288 287 287 287
288 287 287 287 286 286 287 287 287 287 284 284 281 278 281 282 283 282 282 281 282 285 285 278 283 276 281 285 288 287 287 287 288 287 287 286 286 286
288 287 287 286 286 285 284 283 283 284 285 286 283 281 282 284 284 284 280 276 277 285 279 274 277 284 282 284 287 287 287 287 287 287 287 285 285 286
289 288 288 287 288 289 286 284 284 284 288 288 287 287 287 287 286 283 279 275 271 283 276 280 274 278 282 282 283 286 285 285 286 286 286 287 285 283
288 289 287 287 288 288 286 285 284 284 284 283 284 286 285 285 285 284 280 280 277 272 276 281 273 279 276 275 275 278 280 284 284 285 286 285 285 283
287 287 286 286 287 287 287 286 285 285 284 283 283 281 282 281 279 279 281 279 275 273 278 283 282 277 274 277 273 275 277 279 280 280 282 283 283 282
286 286 285 286 286 286 283 285 284 284 284 283 284 284 281 279 278 278 280 283 278 279 279 280 275 278 271 271 271 274 274 278 277 277 278 279 280 280
286 286 286 286 285 283 284 283 280 282 282 282 283 282 281 281 281 280 282 284 281 281 281 280 278 278 275 271 270 270 270 274 277 275 276 276 275 276
285 285 284 283 280 280 279 280 282 282 282 281 283 283 280 280 280 281 279 281 280 275 281 280 279 279 273 274 275 270 272 271 274 275 276 276 276 275
284 283 282 281 281 280 279 279 280 280 280 278 278 278 280 280 279 279 279 279 277 275 274 277 278 277 276 277 271 272 272 271 273 275 276 275 274 274
284 281 280 281 281 281 281 281 280 279 276 276 274 275 275 276 277 278 279 277 275 275 274 273 275 273 275 275 277 272 271 271 271 276 276 273 273 274
282 281 281 281 281 282 282 281 281 280 277 277 275 272 273 272 271 273 273 276 275 275 275 276 276 274 270 264 267 277 270 270 271 269 273 272 272 273
283 282 282 282 283 282 283 282 281 281 282 276 272 274 271 271 271 272 272 269 271 273 273 273 273 273 269 270 265 265 276 267 266 264 266 269 271 276
283 283 284 284 284 284 284 284 283 282 282 276 273 276 280 270 269 269 270 268 268 270 268 268 268 269 270 270 266 264 266 276 273 267 265 261 262 265
285 284 285 284 284 285 285 285 283 283 282 281 280 281 281 272 271 270 267 267 267 268 268 268 269 271 271 271 266 261 265 264 272 278 276 272 265 261
285 286 285 285 285 285 285 285 283 282 282 281 281 280 281 277 270 275 268 266 275 269 266 268 269 268 267 268 265 263 262 262 264 265 266 276 277 276
Wind_Speed
7 7 7 4 5 5 4 4 5 3 0 4 3 5 5 7 9 7 9 11 13 14 17 19 21 22 23 26 27 28 30 30 31 33 34 36 36 35
6 9 7 4 5 4 5 4 3 4 4 1 3 3 7 7 12 9 9 11 13 12 12 17 20 20 22 24 27 29 30 33 33 34 35 36 37 36
7 9 8 6 5 5 4 4 4 4 4 2 2 5 7 8 7 6 7 6 6 11 10 14 18 19 22 23 26 28 30 31 33 35 36 36 36 31
9 10 8 6 7 6 4 5 4 4 4 4 3 4 5 5 5 5 6 6 5 8 11 14 16 18 21 23 25 27 29 29 31 35 38 38 35 31
11 11 10 10 6 5 5 5 4 5 4 4 3 2 2 4 4 4 6 5 5 10 10 9 12 16 20 22 25 27 29 31 31 32 37 38 37 33
9 8 8 9 8 8 7 7 6 5 4 4 3 3 3 4 2 4 6 4 4 3 5 4 7 13 17 21 25 27 29 30 32 34 35 38 39 38
9 9 7 10 12 7 7 5 7 4 4 4 3 3 2 2 4 3 4 5 4 1 3 3 3 4 5 11 18 25 27 29 30 32 36 37 40 43
12 10 10 15 14 17 16 12 6 6 5 4 2 4 1 2 3 2 3 4 3 3 5 4 1 2 6 8 21 24 26 28 27 31 32 36 38 40
12 11 9 8 10 10 14 14 13 12 6 6 6 3 3 2 2 2 1 3 3 3 4 3 2 3 3 7 18 21 24 27 27 26 29 30 32 36
11 11 12 11 8 11 10 9 8 6 5 6 7 4 6 4 2 2 2 4 1 2 4 1 2 1 2 6 16 19 22 23 26 26 22 26 28 27
10 10 11 10 14 16 11 11 8 6 9 13 12 13 11 8 4 2 3 3 3 1 2 3 3 2 2 5 5 17 18 22 23 24 27 23 19 23
9 10 13 12 14 14 10 11 10 8 8 6 4 6 7 5 6 3 1 3 1 3 3 4 2 2 2 2 3 4 6 18 19 22 24 27 26 8
9 9 8 15 13 11 9 7 8 9 8 6 5 4 4 4 2 1 2 2 0 1 4 2 2 3 1 2 2 3 4 6 6 9 18 23 24 21
11 8 10 18 15 13 8 13 13 7 5 4 6 6 4 3 3 3 3 3 1 3 4 3 1 1 1 3 2 4 3 5 4 4 6 14 18 20
9 13 18 17 15 10 13 13 7 4 3 3 6 5 4 4 4 3 3 4 2 1 3 3 2 1 2 1 1 3 4 3 5 3 4 6 7 6
16 14 12 10 6 5 5 4 3 4 4 3 4 3 2 3 3 4 3 4 1 2 2 5 5 2 2 1 2 2 2 2 4 4 2 3 5 6
15 10 9 8 7 5 4 4 3 4 4 2 3 3 2 2 2 2 2 3 3 2 2 2 4 4 4 2 2 2 2 3 3 3 4 2 4 5
13 12 10 9 9 8 7 6 4 4 3 3 3 3 3 3 2 0 1 1 3 2 1 1 2 1 2 4 6 2 2 2 3 5 5 2 1 3
9 10 10 9 9 8 7 6 5 4 4 3 3 3 3 2 3 1 1 1 1 2 1 2 2 1 1 1 4 7 1 2 3 3 2 2 2 2
9 10 10 9 9 9 9 7 6 6 5 3 3 4 4 3 2 2 2 3 1 1 2 2 2 1 3 2 3 4 5 1 1 2 3 3 2 6
8 9 8 8 8 8 8 7 8 7 7 4 3 3 3 3 2 3 3 3 3 1 2 1 4 4 2 1 3 3 4 6 4 3 2 2 2 3
9 9 8 8 8 8 7 7 7 8 7 6 3 4 4 3 3 4 4 3 2 2 3 1 2 1 2 2 2 3 3 4 4 7 6 5 4 2
10 10 9 9 8 8 8 8 8 7 7 7 5 4 5 3 3 3 4 3 2 1 2 1 1 1 1 3 3 2 2 3 1 3 4 6 11 12
Wind_Direction
119 116 110 97 92 97 97 113 137 154 87 23 97 15 100 74 50 40 37 87 53 51 45 29 23 15 9 5 359 353 347 340 331 324 314 306 293 282
122 118 111 111 106 100 98 96 91 126 128 121 45 78 46 55 34 41 44 35 20 40 49 33 23 18 10 6 3 2 353 349 342 333 324 312 299 279
114 121 120 123 116 105 101 101 104 107 117 98 94 38 45 43 28 34 24 24 2 40 28 41 22 17 10 4 0 358 355 353 351 344 337 328 315 289
135 131 133 129 121 118 114 114 110 101 121 105 48 46 66 31 30 41 14 7 348 31 26 36 26 17 11 4 360 358 354 353 353 353 348 345 336 317
142 141 139 130 125 129 130 113 103 93 86 112 111 84 79 33 25 13 8 345 341 358 11 38 28 22 12 7 2 1 0 356 356 355 355 351 346 331
132 132 137 137 142 128 117 125 116 101 94 102 86 77 61 21 33 13 359 350 332 339 6 35 33 25 16 5 7 6 4 0 0 2 360 357 358 352
106 102 87 97 97 109 124 122 118 111 110 96 85 74 50 5 38 360 344 320 314 338 334 307 14 11 9 351 6 6 6 6 7 6 7 4 10 18
121 107 111 100 88 93 95 85 109 134 125 116 137 102 145 82 35 358 328 348 348 338 333 315 59 320 12 1 6 10 12 11 16 13 13 11 14 23
130 130 112 108 105 111 99 94 83 82 99 133 123 142 128 97 23 327 297 318 303 354 338 312 344 338 16 357 9 11 14 17 20 21 21 19 17 25
133 129 128 129 143 133 125 118 112 112 122 113 118 143 106 113 50 257 258 275 293 102 37 260 293 12 342 13 3 13 16 16 21 23 31 31 28 28
124 127 132 147 153 152 140 136 132 138 134 129 141 147 137 123 82 28 331 11 337 59 0 351 294 323 30 12 340 12 17 18 18 25 29 33 34 35
130 141 155 153 163 160 152 151 144 156 146 130 139 117 121 126 92 74 53 41 314 358 284 347 341 341 344 283 331 344 356 11 9 17 24 36 29 15
147 154 156 155 152 145 153 159 155 146 158 157 145 125 153 169 147 183 112 118 292 290 281 315 17 334 305 303 325 333 349 357 355 8 16 30 39 40
152 150 148 156 152 139 130 135 130 128 125 148 151 157 172 190 188 181 196 136 183 182 288 31 117 358 336 354 344 330 318 0 346 355 16 23 31 35
150 141 146 147 144 136 141 132 127 121 128 133 157 154 185 177 150 171 181 167 130 35 21 50 92 16 70 123 251 303 347 328 350 348 3 35 30 23
131 139 144 139 126 137 117 111 120 112 121 126 146 144 150 141 173 175 157 191 148 310 350 56 41 62 6 17 108 307 324 7 329 341 354 22 30 39
129 137 144 149 151 153 128 138 127 117 120 133 107 133 147 126 167 140 169 169 171 176 284 20 72 72 53 13 29 329 321 348 327 336 14 19 19 23
145 155 159 164 161 157 151 151 140 130 147 139 127 132 133 121 132 40 105 125 158 172 184 211 173 3 359 355 52 314 2 351 324 359 5 18 1 32
152 159 163 166 162 152 157 157 159 155 155 142 141 141 130 128 115 136 207 92 44 128 163 115 66 116 56 258 293 17 85 331 334 356 344 348 317 28
156 160 162 165 156 157 165 170 165 162 158 144 140 152 148 142 142 207 190 143 110 292 67 36 104 114 147 221 216 265 342 124 94 318 323 326 317 89
166 162 162 159 160 164 164 165 159 160 159 153 173 150 157 137 183 188 131 127 128 134 141 201 234 182 170 78 21 317 294 274 192 167 247 72 334 345
167 162 161 160 167 166 164 160 153 159 160 163 152 157 180 164 168 169 141 144 210 189 181 224 296 53 100 124 227 234 281 309 295 253 231 197 155 308
173 165 163 169 168 166 163 160 158 161 157 147 161 172 184 165 191 175 133 142 144 153 159 207 298 31 197 169 182 248 282 280 295 338 319 267 242 258